Вернуться в каталог

STARLINK-35015

АктивенСвязьSSO
NORAD 65283·PAYLOAD·🇺🇸 United States

Запущен Aug 22, 2025 с Vandenberg Space Force Base

Loading…

Ближайшие Пролёты (ближайшие 24 часа)

TLE

СвежийSource: CelesTrak SupGP

Эпоха: Sep 14, 2026, 22:34 UTC

1 65283C 25184L   26257.94076389  .00039132  00000+0  12151-2 0  2578
2 65283  97.2837 306.0456 0001064  90.7359  11.9026 15.33409590    19

Отслеживайте STARLINK-35015 в реальном времени с AllMySat

Download on the App Store